Regional Weather Roundup
Issued by NWS

Home | Current Version | Previous Version | Text Only | Print | Product List | Glossary On
Versions: 1 2 3 4 5 6 7 8 9 10 11 12 13 14 15 16 17 18 19 20 21 22 23 24 25 26 27 28 29 30 31 32 33 34 35 36 37 38 39 40 41 42 43 44 45 46 47 48 49 50
000
ASUS43 KFSD 231602
RWRSD

WEATHER ROUNDUP FOR SOUTH DAKOTA
NATIONAL WEATHER SERVICE SIOUX FALLS SD
1000 AM CST SUN NOV 23 2014

NOTE: "FAIR" INDICATES FEW OR NO CLOUDS BELOW 12,000 FEET WITH NO
SIGNIFICANT WEATHER AND/OR OBSTRUCTIONS TO VISIBILITY.


SDZ001>005-009-010-012>017-231700-
NORTHWEST AND NORTH CENTRAL SOUTH DAKOTA

CITY           SKY/WX    TMP DP  RH WIND       PRES   REMARKS
BUFFALO          N/A     36  23  59 NW38G54   29.57R
FAITH            N/A     38  26  62 W31G41    29.61R
MOBRIDGE       CLOUDY    39  30  70 NW15      29.52R
$$

SDZ012>016-024>037-041>051-057-063-072>074-231700-
SOUTHWEST AND SOUTH CENTRAL SOUTH DAKOTA

CITY           SKY/WX    TMP DP  RH WIND       PRES   REMARKS
RAPID CTY ARPT SUNNY     41  19  41 NW37G53   29.69R
PIERRE         PTSUNNY   39  30  70 W16       29.62R
CUSTER         SUNNY     30  14  51 NW17G31   29.69R WCI  18
ELLSWORTH AFB  SUNNY     40  20  43 NW39G48   29.68R
PHILIP         LGT RAIN  46  26  45 NW29G44   29.64R
PINE RIDGE     SUNNY     36  23  59 NW9       29.74R
WINNER         FAIR      41  30  65 NW15      29.67R
$$

SDZ004>011-016>023-039-040-231700-
NORTHEAST SOUTH DAKOTA

CITY           SKY/WX    TMP DP  RH WIND       PRES   REMARKS
ABERDEEN       CLOUDY    40  32  73 W15       29.52S
WATERTOWN      CLOUDY    37  32  82 NW13      29.50R
SISSETON         N/A     40  35  83 NW12      29.47R
$$

SDZ017-020-022-023-036>040-048>070-231700-
SOUTHEAST SOUTH DAKOTA

CITY           SKY/WX    TMP DP  RH WIND       PRES   REMARKS
SIOUX FALLS    LGT RAIN  40  37  89 NW17      29.54R
HURON          PTSUNNY   39  32  76 NW14      29.57R
CHAMBERLAIN    CLOUDY    39  32  77 W12       29.64R
MITCHELL       CLOUDY    43  33  68 NW14      29.60
YANKTON        CLOUDY    41  36  81 W18       29.59R
$$

ABBREVIATIONS USED IN REMARKS
   TC - TEMPERATURE IN CELSIUS
  WCI - WIND CHILL INDEX
   HX - HEAT INDEX
  VSB - VISIBILITY



USA.gov is the U.S. government's official web portal to all federal, state and local government web resources and services.